Regional Weather Roundup
Issued by NWS

Home | Current Version | Previous Version | Text Only | Print | Product List | Glossary Off
Versions: 1 2 3 4 5 6 7 8 9 10 11 12 13 14 15 16 17 18 19 20 21 22 23 24 25 26 27 28 29 30 31 32 33 34 35 36 37 38 39 40 41 42 43 44 45 46 47 48 49 50

000
ASUS44 KMEG 192000
RWRTN
TENNESSEE HOURLY STATE WEATHER ROUNDUP
NATIONAL WEATHER SERVICE MEMPHIS TN
300 PM CDT TUE AUG 19 2014

TNZ002-004-019-021-049-052-054-088>092-192100-
WEST TENNESSEE

CITY           SKY/WX    TMP DP  RH WIND       PRES   REMARKS
MEMPHIS INTL   MOSUNNY   92  71  50 W9        29.88F HX  98
NWS MEMPHIS      N/A     90 N/A N/A MISG        N/A
JACKSON        CLOUDY    87  71  58 SW7       29.88F HX  93
DYERSBURG      PTSUNNY   86  66  51 SW8       29.86F
UNION CITY     SUNNY     88  73  62 SW10      29.83F HX  96
PARIS          MOSUNNY   84  73  70 SW9       29.88F HX  91
LEXINGTON      MOSUNNY   90  73  58 SW9       29.88S HX  98
SAVANNAH       SUNNY     90  75  62 SW12      29.89F HX 100
$$

TNZ008-025-027-028-033-062-065-066-192100-
NORTH MIDDLE TENNESSEE

CITY           SKY/WX    TMP DP  RH WIND       PRES   REMARKS
NASHVILLE      PTSUNNY   89  72  56 W5        29.88F HX  96
CLARKSVILLE    MOSUNNY   88  72  58 SW12      29.86F HX  94
COOKEVILLE     PTSUNNY   88  73  62 W7        29.91F HX  96
CROSSVILLE     MOSUNNY   80  68  66 W9        29.96F
$$

TNZ061-075-076-078-094-096-097-192100-
SOUTH MIDDLE TENNESSEE

CITY           SKY/WX    TMP DP  RH WIND       PRES   REMARKS
FAYETTEVILLE   MOSUNNY   86  72  62 W7        29.92F HX  92
TULLAHOMA      MOSUNNY   86  70  58 W6        29.93F HX  90
WINCHESTER     SUNNY     84  72  65 W8        29.92F
COLUMBIA       MOSUNNY   90  73  58 SW6       29.88F HX  98
SHELBYVILLE    MOSUNNY   90  73  58 VRB3      29.91F HX  98
$$

TNZ017-018-042-046-047-192100-
NORTHEAST TENNESSEE

CITY           SKY/WX    TMP DP  RH WIND       PRES   REMARKS
TRI CITIES     PTSUNNY   82  64  54 W14       29.91F
ELIZABETHTON   PTCLDY    81  66  61 VRB6      29.91F
$$

TNZ012-013-036-069-073-074-192100-
CENTRAL EAST TENNESSEE

CITY           SKY/WX    TMP DP  RH WIND       PRES   REMARKS
KNOXVILLE      PTSUNNY   81  68  64 W9        29.89F
OAK RIDGE      MOSUNNY   83  70  64 VRB6      29.91F
GATLINBURG     CLEAR     86  68  54 W8        29.89F
$$

TNZ083-085-099-192100-
SOUTHEAST TENNESSEE

CITY           SKY/WX    TMP DP  RH WIND       PRES   REMARKS
CHATTANOOGA    MOSUNNY   88  68  51 W13       29.89F HX  91
$$

SKY/WX REPORTED AS FAIR MEANS FEW OR NO CLOUDS BELOW
12 THOUSAND FEET.




USA.gov is the U.S. government's official web portal to all federal, state and local government web resources and services.